Theta_e
349 351 352 352 353 354 355 354 353 354 354 354 354 355 356 357 357 357 357 357 357 357 356 356 356 354 352 352 348 343 339 337 336 335 334 334 334 333 330 332 335 336 337 337 336 334 334 336 337 335 334 333 332 332 331 331 332 332 332 333 333 333 334
349 351 353 352 353 355 355 354 352 353 353 354 354 354 356 357 357 357 356 357 358 356 356 356 355 354 353 352 346 340 338 337 335 334 334 335 335 333 331 332 335 336 337 337 334 334 334 335 335 335 334 333 333 333 332 331 332 332 332 332 332 333 334
348 351 353 353 353 355 355 354 352 353 353 354 354 354 355 356 356 357 356 357 357 356 355 355 354 353 352 349 342 339 338 337 334 332 333 335 334 333 332 332 334 335 336 335 334 334 333 333 334 333 331 333 333 333 332 332 333 333 333 333 333 333 333
347 349 351 353 354 354 355 354 352 353 353 353 354 354 355 356 356 357 356 356 357 355 355 354 353 352 350 347 341 339 339 336 333 333 334 334 334 332 332 332 334 335 335 334 333 332 332 332 332 331 332 333 333 333 332 333 333 332 332 332 332 333 333
346 349 351 352 354 354 355 354 352 352 353 352 354 354 354 355 356 356 356 356 356 354 354 353 352 350 347 344 341 340 340 335 333 334 334 334 333 332 332 333 334 335 333 332 332 331 332 332 333 333 333 333 333 332 333 333 332 332 332 331 331 331 331
346 347 351 352 352 353 353 353 352 352 352 353 353 353 354 355 355 356 356 356 355 354 353 351 349 348 344 342 341 342 340 335 334 335 335 334 334 332 332 332 333 332 331 330 331 331 333 334 334 334 334 333 333 334 334 332 332 332 331 332 331 330 330
345 346 349 351 351 351 351 351 351 352 352 352 353 353 354 354 354 355 355 355 355 354 352 350 349 346 344 342 341 341 339 335 335 335 335 335 334 332 332 332 333 331 330 330 331 333 334 335 335 334 334 334 334 334 332 331 331 331 331 331 330 329 330
344 345 346 350 351 349 350 350 350 352 352 352 353 352 353 354 354 354 355 354 354 353 352 350 348 346 344 342 341 342 338 335 335 335 335 335 334 333 332 332 333 333 332 332 332 333 334 334 334 334 334 334 334 332 331 331 331 331 330 329 329 329 329
345 345 344 347 348 348 349 349 349 351 351 352 352 352 352 353 353 353 354 354 353 353 351 350 348 346 345 343 342 341 338 335 336 335 335 335 334 333 333 333 334 335 334 332 331 332 333 333 333 333 333 333 333 332 331 332 332 331 330 329 329 329 330
346 346 346 346 346 348 348 348 349 351 350 352 351 351 352 352 352 353 354 354 353 353 351 350 348 346 345 343 342 340 338 336 335 335 335 335 335 335 334 334 335 335 334 333 331 331 332 332 333 333 333 333 332 331 331 332 331 330 330 329 329 330 330
347 347 348 347 346 348 349 350 353 351 350 351 351 351 351 351 352 353 353 354 353 352 352 350 349 347 344 343 341 339 337 336 336 336 336 337 336 336 336 335 335 335 334 333 331 330 332 332 333 333 333 333 333 332 331 331 330 330 330 329 329 329 329
347 348 348 348 348 348 350 352 354 352 350 351 351 351 351 351 352 352 353 353 353 353 352 350 349 347 345 343 340 338 336 335 337 334 332 336 338 337 337 336 335 334 333 332 331 331 332 333 334 334 334 333 333 332 330 330 330 330 330 329 328 328 328
348 348 346 348 348 348 350 352 353 353 350 350 350 351 350 351 351 352 353 353 353 353 351 350 349 346 346 344 340 337 336 337 336 326 326 335 340 338 337 335 334 334 332 331 332 332 334 334 334 334 333 332 331 330 330 329 331 331 330 329 327 327 327
349 349 348 349 348 348 350 351 352 353 350 349 350 350 350 350 350 351 352 353 352 352 351 349 348 347 345 343 340 337 336 336 330 320 324 336 338 336 337 336 335 333 331 332 333 333 335 335 333 332 331 330 329 330 330 331 332 331 330 328 327 327 328
351 350 348 348 348 349 350 349 352 353 350 348 349 349 350 350 351 351 351 352 352 351 351 349 348 346 344 341 338 336 336 335 327 324 332 338 336 335 337 336 335 334 332 333 335 335 335 334 332 330 330 330 331 331 332 333 332 332 331 330 328 327 327
351 349 350 350 348 349 349 349 350 351 350 348 347 349 349 349 350 351 350 352 352 351 351 349 347 345 341 338 337 337 337 335 330 330 334 335 334 335 337 337 337 335 334 335 335 335 336 334 332 331 331 331 331 332 333 333 333 333 332 331 329 326 326
351 349 350 351 350 349 349 350 350 351 352 349 346 348 349 348 350 351 350 351 350 350 351 348 346 342 339 338 338 338 337 334 330 330 330 329 333 336 337 337 337 336 335 336 335 335 336 334 332 332 331 332 332 332 333 333 334 333 331 331 330 327 326
351 351 354 354 353 353 352 352 353 354 352 348 346 348 349 349 350 349 350 351 350 351 350 346 344 341 338 339 338 338 338 333 330 330 329 329 333 337 338 337 337 337 337 336 335 336 335 334 333 332 332 332 332 332 333 333 334 333 332 330 329 328 326
351 353 356 356 357 357 355 354 353 350 346 343 345 349 348 349 350 349 350 350 349 350 348 345 343 340 338 339 338 339 338 333 329 330 331 331 333 337 338 337 337 337 337 335 335 335 335 334 333 333 332 332 332 333 333 332 333 333 333 331 330 329 328
349 353 357 358 360 360 359 357 351 343 341 343 344 347 348 349 350 350 350 349 349 348 347 344 341 339 338 338 338 338 338 334 329 331 333 333 335 338 338 337 337 336 336 335 335 335 335 334 334 334 332 331 332 332 332 332 332 333 333 333 332 330 329
353 361 364 365 370 372 374 369 354 342 342 344 343 344 347 348 350 350 350 349 348 347 345 343 340 339 338 338 338 338 337 334 332 333 335 335 336 337 337 337 337 336 335 335 335 335 335 334 334 333 332 331 332 331 331 331 331 332 333 334 334 333 331
357 359 363 371 380 383 377 365 352 344 344 345 344 344 345 347 349 350 348 347 348 346 344 342 340 339 338 338 339 338 336 332 332 335 336 337 337 337 337 337 336 336 335 335 335 334 335 334 333 333 331 331 332 332 331 332 332 333 334 334 333 333 330
351 354 360 358 355 354 351 344 343 344 345 345 346 345 344 346 348 348 346 346 345 345 343 342 340 339 339 339 339 338 335 332 334 337 337 337 336 336 337 337 337 336 336 335 335 335 335 334 333 331 331 331 332 332 333 332 333 333 333 332 331 331 329
347 355 353 343 337 337 336 337 341 344 344 346 347 346 346 347 347 346 344 343 343 343 342 341 340 340 339 339 339 340 338 335 336 337 337 337 337 336 337 337 336 336 336 335 335 335 335 334 333 332 332 332 332 333 333 333 333 331 330 329 329 329 329
349 350 342 337 340 342 338 338 341 343 345 347 347 348 347 347 346 345 342 341 342 342 341 340 340 340 340 340 339 339 339 338 337 337 337 337 337 336 337 337 336 336 336 336 335 335 335 335 334 333 333 332 333 333 332 332 330 328 328 328 328 329 329
352 351 344 343 346 347 343 343 345 345 347 347 347 349 348 346 346 343 341 342 341 340 341 341 340 341 341 340 339 338 339 339 338 337 337 336 336 337 338 338 337 337 336 336 335 335 334 334 333 333 333 332 332 331 330 329 328 327 327 326 327 328 328
340 342 342 342 347 348 347 346 345 343 345 346 346 348 346 345 343 341 340 341 339 340 342 341 341 340 340 339 338 338 339 339 339 338 336 336 337 338 338 338 337 336 336 335 335 334 334 333 333 333 332 331 330 329 328 328 327 326 326 326 325 326 326
346 348 348 343 343 346 345 344 344 343 343 344 345 346 344 343 341 340 339 339 339 341 341 340 340 340 338 338 338 338 338 338 338 335 332 335 338 338 337 337 336 336 336 334 334 334 334 334 333 330 329 329 327 327 328 328 326 326 325 325 325 325 325
357 358 353 344 339 341 340 340 341 341 341 344 344 343 343 342 340 339 338 338 340 340 340 339 339 339 337 337 337 337 337 335 333 330 330 335 337 336 336 336 335 335 335 334 334 335 333 332 330 326 326 327 326 326 327 326 326 326 326 325 325 324 324
357 354 350 343 340 339 337 336 338 339 340 341 340 340 340 339 340 339 338 338 339 338 338 338 337 337 337 336 337 336 335 332 331 331 333 336 337 336 336 336 335 335 335 335 335 333 330 327 326 325 325 325 325 326 326 326 326 326 326 325 324 324 324
347 346 346 343 339 338 335 335 337 338 339 340 340 340 339 338 338 339 337 336 337 337 337 337 336 335 336 335 336 334 333 332 332 333 335 337 337 336 336 335 334 335 334 333 331 328 325 324 325 326 325 325 326 327 327 326 326 325 324 324 324 324 324
341 338 340 342 340 337 334 334 336 336 338 339 338 339 339 338 338 338 337 336 336 336 336 336 336 336 335 335 335 333 332 332 333 334 336 337 335 336 335 335 334 333 330 329 327 325 325 325 325 326 326 327 327 327 326 326 325 324 324 323 323 323 322
348 337 337 341 340 336 333 333 334 335 336 336 336 338 338 337 338 338 337 336 336 335 335 335 336 336 335 335 334 333 333 333 334 335 335 335 334 335 334 333 331 328 327 327 326 325 324 324 325 326 327 328 328 326 326 325 324 324 323 323 323 322 321
346 336 337 340 339 336 334 333 333 334 334 334 335 336 337 337 337 337 337 336 336 335 335 335 335 336 336 335 335 334 334 334 334 333 332 331 332 332 331 328 327 326 327 326 325 325 324 325 327 329 329 328 326 325 325 325 324 323 323 323 323 322 320
338 335 339 340 338 336 334 332 333 334 334 335 335 336 336 335 335 336 336 336 336 336 336 335 335 336 335 334 334 333 333 332 332 330 329 329 329 329 327 327 327 327 326 326 326 326 327 328 329 329 327 326 325 325 325 325 324 324 323 323 322 321 319
334 334 338 338 337 336 334 333 334 335 335 334 333 331 328 326 326 329 332 334 335 335 335 334 334 334 333 333 333 333 332 331 329 328 328 328 328 328 327 326 326 327 328 328 328 328 328 327 327 325 324 324 324 323 324 324 324 324 323 322 321 319 318
334 336 336 336 336 336 333 332 333 334 332 330 326 323 322 321 321 322 325 327 328 330 329 328 327 327 329 332 332 332 331 330 329 328 327 326 326 326 326 324 324 325 326 327 326 325 325 324 324 323 323 322 322 322 323 323 324 323 321 320 318 318 316
338 337 336 335 335 334 331 330 331 332 329 326 323 322 324 325 325 325 326 325 325 324 324 324 323 322 322 325 327 327 328 328 327 326 325 325 324 324 324 323 322 322 322 323 323 323 323 323 322 322 322 321 320 320 320 320 320 319 318 317 316 316 315
Wind_Speed
13 13 14 13 13 14 14 16 20 24 26 28 30 33 35 35 36 35 35 36 37 37 38 37 37 36 34 33 31 29 28 26 24 23 23 22 19 18 16 16 15 14 15 15 13 12 11 11 11 9 7 6 6 5 4 4 3 3 2 2 3 4 5
13 13 14 13 14 14 15 18 22 25 26 29 31 33 34 35 36 37 37 38 39 39 40 39 39 39 37 35 33 32 30 27 25 24 23 22 20 19 19 17 17 16 16 15 13 13 13 13 11 9 8 8 7 6 5 4 4 4 4 4 5 6 6
13 13 14 14 14 14 15 17 21 25 27 29 30 31 34 37 40 41 40 40 41 40 40 41 41 41 39 38 37 35 33 29 27 26 24 23 22 21 19 18 18 17 17 16 14 14 14 13 12 11 10 10 9 8 6 6 6 6 6 7 7 7 7
14 15 15 15 15 14 14 16 21 26 29 31 33 35 38 41 42 43 42 42 42 41 43 44 44 42 41 41 40 38 34 31 29 27 25 24 23 22 20 19 18 18 17 16 14 14 14 13 12 12 11 11 10 9 8 7 8 8 8 8 8 8 8
15 14 13 13 13 12 12 15 21 26 29 32 35 36 39 41 40 39 40 41 42 44 45 44 43 42 42 42 41 39 36 33 31 29 26 25 24 21 21 20 19 18 16 15 14 14 14 13 13 13 12 11 10 9 9 9 10 9 9 9 10 10 10
14 13 13 12 12 13 13 16 22 29 31 33 36 38 38 37 36 38 40 40 41 41 40 40 41 42 42 42 42 40 37 34 32 30 28 26 24 22 22 21 19 18 16 14 14 14 14 14 14 13 12 11 11 10 10 11 11 11 11 11 11 11 11
14 13 13 13 13 14 14 16 23 30 33 34 36 36 35 35 36 38 38 39 40 40 38 39 41 41 42 42 42 40 39 36 34 31 28 26 24 22 22 21 19 18 16 15 15 15 16 15 15 14 12 11 11 10 10 11 11 11 12 12 12 12 12
15 14 14 14 14 15 14 15 20 27 30 30 30 30 32 34 35 36 36 38 39 38 38 40 42 43 43 41 42 42 40 37 35 32 29 26 24 22 21 21 21 19 18 17 16 16 16 16 15 13 12 11 11 10 10 11 11 12 12 13 14 14 14
15 14 15 14 14 14 13 14 19 25 27 28 29 31 33 34 34 35 37 38 38 38 40 41 42 43 41 41 42 41 40 38 36 32 27 23 21 20 20 22 22 21 20 19 17 17 17 16 15 13 12 11 11 11 12 13 13 13 13 14 15 16 15
13 13 13 13 13 12 10 12 16 19 21 25 28 30 31 33 35 36 36 36 37 39 41 42 41 39 40 41 41 40 40 35 30 26 23 20 19 20 21 23 24 23 21 19 17 17 17 16 16 15 14 13 13 13 14 14 15 14 15 16 16 15 14
12 12 12 12 13 11 10 11 12 14 18 23 26 28 31 33 34 34 35 37 38 40 42 41 39 38 39 39 39 39 34 27 24 22 18 19 22 23 25 26 25 24 22 19 18 18 17 17 18 17 16 16 15 14 15 15 15 15 15 15 15 14 13
11 11 12 14 13 11 11 12 13 14 18 23 26 29 31 32 34 35 36 38 39 40 40 39 39 38 38 38 37 33 26 26 27 24 20 23 27 28 29 29 26 24 22 20 19 18 18 18 18 18 18 17 16 16 15 15 15 15 15 14 14 13 12
10 10 12 13 13 11 11 12 13 15 18 23 27 30 31 33 35 35 36 38 40 39 38 39 38 37 36 36 32 25 28 32 31 29 28 30 31 30 31 29 26 24 22 20 20 18 18 18 18 18 17 15 15 15 16 16 16 15 14 13 13 12 12
10 10 11 12 12 13 13 13 14 15 17 23 27 29 32 33 35 37 38 39 39 38 38 37 36 36 35 31 24 27 36 35 30 30 32 33 31 31 31 30 27 24 22 21 21 19 19 18 17 17 15 14 13 14 15 16 15 15 15 14 13 13 13
11 12 13 13 13 13 13 14 14 14 16 21 25 27 29 30 32 34 34 35 36 36 36 36 35 32 24 19 24 33 36 34 30 27 28 30 31 30 31 31 29 25 23 23 22 21 20 18 18 17 15 14 14 14 15 16 16 16 16 15 14 14 14
12 13 14 14 13 12 13 14 14 14 15 17 22 25 26 28 29 31 33 34 35 34 35 34 29 22 22 27 33 36 35 35 30 23 24 31 33 31 32 33 30 27 26 26 24 23 21 20 20 18 16 15 15 16 18 18 18 17 17 17 16 15 15
13 13 12 12 11 11 11 11 12 12 12 14 20 24 26 28 29 31 32 32 32 34 34 29 23 25 30 34 38 39 38 35 27 23 29 34 34 33 33 33 31 29 29 28 26 25 23 23 22 20 18 18 18 19 21 21 20 18 17 18 17 17 16
12 12 11 11 10 9 10 10 10 10 10 13 18 22 25 27 28 28 29 31 34 33 28 24 25 30 33 36 39 39 35 31 24 25 34 35 35 35 33 32 32 32 32 31 28 26 25 25 24 22 21 21 21 22 23 22 21 19 18 19 19 19 18
11 11 11 9 9 8 9 8 7 8 10 13 18 22 26 27 26 27 30 32 30 24 22 25 30 33 34 36 37 34 30 27 24 31 37 36 36 36 33 33 33 34 34 33 30 28 27 28 27 24 23 23 24 24 23 22 21 20 21 21 21 21 22
9 8 7 7 7 8 8 7 7 10 15 18 22 25 25 25 25 26 26 23 19 18 23 27 29 31 31 31 30 30 31 31 32 36 37 35 34 34 33 34 35 35 36 34 31 30 30 30 29 26 25 25 25 24 24 23 22 22 22 23 24 24 24
6 7 7 7 7 7 7 7 8 12 17 21 23 23 22 23 25 24 21 19 18 22 27 30 31 33 35 36 37 39 39 36 35 38 37 34 34 34 33 34 35 36 36 35 34 33 32 31 29 27 26 26 26 26 25 24 23 23 24 25 25 25 25
8 8 8 8 8 8 8 9 11 13 15 16 17 19 21 24 24 21 19 20 23 27 31 34 35 37 40 42 44 43 40 37 40 42 39 35 33 32 31 33 36 38 38 37 36 34 32 30 28 26 26 27 28 28 27 26 25 23 23 24 24 24 23
10 9 8 8 8 9 11 13 14 14 12 10 12 17 21 22 22 21 21 24 27 30 34 35 35 37 38 38 39 39 40 42 42 39 35 33 30 30 32 35 37 39 40 38 36 35 33 31 28 27 27 28 28 27 26 25 23 21 21 21 20 19 20
9 8 8 8 7 8 11 13 13 12 12 11 12 16 19 20 22 23 23 25 28 31 32 31 32 34 35 37 39 41 44 45 39 34 33 32 30 31 34 36 39 41 39 37 36 35 33 32 30 28 28 28 25 22 21 21 19 16 16 17 16 17 18
6 6 8 10 11 11 12 13 12 10 11 12 14 17 19 22 25 26 25 27 29 30 29 30 32 36 40 42 44 43 42 38 33 33 35 32 30 32 35 37 39 39 37 36 36 34 32 31 29 28 26 23 19 16 15 16 15 13 13 14 15 16 17
6 6 7 8 10 12 13 14 12 11 12 15 18 19 22 26 28 27 27 28 28 28 31 35 39 41 41 41 41 39 34 31 33 38 37 32 32 35 36 37 36 34 32 33 33 31 29 26 24 23 19 15 13 11 10 12 13 12 12 14 14 15 16
5 6 7 10 11 12 14 13 12 12 14 17 18 20 25 28 28 28 29 28 28 31 37 39 40 38 37 36 37 35 33 34 40 40 34 31 32 31 29 29 28 27 28 29 28 25 23 20 19 17 13 11 11 8 7 12 14 13 12 12 12 14 15
4 5 5 7 10 11 12 11 11 12 15 18 20 23 27 29 28 26 26 27 30 35 36 35 35 35 34 34 33 34 35 36 35 31 27 28 28 24 21 20 21 23 25 25 22 20 19 18 17 13 10 10 9 6 10 15 15 12 11 11 12 14 15
4 2 2 3 4 7 9 9 10 11 12 15 19 22 26 28 26 24 24 28 33 32 29 30 32 32 31 32 31 32 31 27 23 23 24 24 20 15 14 15 17 20 22 21 20 20 19 18 16 12 9 8 8 9 14 16 13 11 11 12 13 15 15
5 3 1 1 3 7 7 6 6 6 7 10 14 17 20 21 20 21 23 24 23 21 23 27 30 29 28 30 29 27 23 19 16 19 21 16 10 7 9 11 15 19 21 22 21 19 17 16 16 13 9 10 11 12 14 14 11 11 13 13 14 14 14
7 6 4 2 3 6 6 6 6 6 7 11 13 14 14 12 11 11 11 8 10 16 22 25 26 26 26 26 26 24 20 17 17 18 15 9 7 8 10 11 15 20 22 22 21 19 17 16 17 13 10 11 11 13 13 12 12 13 13 13 13 13 12
7 7 6 3 2 3 4 4 5 6 8 9 10 11 10 8 6 5 3 4 10 18 22 23 22 21 21 22 21 19 18 18 17 15 12 10 10 10 11 13 19 23 23 22 20 19 18 17 15 13 11 12 13 13 12 12 12 13 13 13 13 12 11
7 8 6 4 3 4 5 5 5 5 5 5 4 5 5 4 3 4 4 8 14 18 20 20 19 18 17 16 13 11 11 11 9 10 13 12 10 9 10 14 20 23 23 22 20 18 16 15 14 14 14 14 13 12 12 12 13 13 14 14 13 12 11
7 7 5 3 3 3 3 4 4 4 5 7 6 7 8 7 7 6 7 9 15 18 18 17 16 16 17 17 15 12 11 9 9 13 13 9 7 8 10 15 20 21 21 20 19 17 16 16 17 17 16 15 13 12 12 13 14 14 14 14 13 11 10
7 9 8 6 3 2 1 3 6 8 9 10 11 13 15 16 15 13 12 13 16 18 18 17 16 17 17 17 16 15 14 14 14 14 11 10 10 12 15 18 19 19 18 17 16 16 16 16 17 16 15 13 11 11 12 13 13 14 14 13 12 11 10
7 11 12 8 3 3 5 6 9 13 14 15 18 22 24 24 25 25 24 24 23 23 24 22 19 17 16 14 14 15 14 13 13 13 13 12 11 12 16 17 16 15 15 14 14 14 14 13 13 13 11 9 9 10 11 11 10 10 11 11 10 9 8
9 11 11 7 6 7 8 10 13 16 17 19 23 27 28 29 30 32 32 30 29 29 30 28 24 21 17 14 13 12 11 12 14 11 7 5 11 18 21 19 14 12 13 13 12 12 12 11 10 9 8 8 8 8 9 9 8 8 9 9 9 8 8
7 6 6 5 7 9 10 12 15 18 21 24 27 28 29 30 30 29 28 27 26 26 25 22 19 16 13 13 11 9 11 16 16 10 13 19 24 26 26 21 17 14 12 11 12 11 10 10 8 7 7 7 6 7 8 7 7 7 7 7 7 8 8
Wind_Direction
185 188 189 190 191 190 191 191 190 190 190 190 190 191 192 193 195 197 200 203 206 208 209 211 211 210 208 207 207 205 203 203 205 206 206 207 211 214 214 211 211 212 208 206 212 214 208 199 196 199 214 234 247 260 284 295 297 299 291 292 296 293 295
188 190 190 190 193 193 192 191 190 190 191 193 194 192 193 194 195 197 200 203 206 207 208 208 208 207 207 206 204 201 202 205 207 208 208 209 214 218 216 212 210 210 209 210 211 210 205 202 206 215 224 231 236 242 262 278 283 288 283 284 293 293 291
191 191 192 193 194 192 190 190 191 192 193 195 195 194 195 196 197 199 200 202 204 206 207 207 207 205 205 203 201 201 203 205 207 206 207 210 211 211 210 209 208 207 207 210 212 211 211 214 218 220 219 220 224 230 243 257 262 269 272 275 282 288 292
192 194 193 194 195 192 189 188 191 194 195 196 196 197 198 199 200 200 201 202 202 203 205 206 205 204 203 201 200 201 203 205 206 206 207 208 207 206 206 206 204 205 208 211 214 216 217 216 213 210 211 216 222 226 234 246 254 261 265 266 270 278 285
195 194 193 195 193 192 191 190 193 195 197 199 199 200 201 201 201 201 202 204 204 205 206 205 203 202 202 201 201 203 204 205 205 204 205 205 205 206 207 205 203 205 208 210 213 215 212 209 205 206 213 221 225 227 235 246 253 258 261 261 266 274 278
193 192 194 195 192 193 192 192 195 197 198 199 199 202 203 202 201 202 204 205 205 207 207 205 204 203 202 201 202 203 204 204 203 202 203 204 205 207 208 207 207 207 206 205 208 209 208 210 212 214 219 225 230 234 243 252 253 252 255 259 265 271 273
192 193 195 195 193 194 193 194 197 199 200 201 201 202 202 201 203 204 204 205 206 206 205 205 204 203 203 202 201 202 202 202 202 201 201 203 206 208 208 209 210 208 205 203 205 207 211 217 220 222 227 232 239 247 254 257 255 252 256 263 268 272 276
194 193 195 197 196 195 194 194 196 198 201 202 202 202 202 203 204 205 205 206 206 206 205 206 205 205 204 202 201 202 201 201 200 200 200 201 205 208 209 211 212 209 205 205 209 213 217 223 225 229 236 241 249 255 255 255 255 257 263 269 273 278 284
196 196 198 198 196 196 194 193 195 197 199 200 201 202 203 203 205 205 206 206 205 206 207 207 207 206 204 202 202 201 200 199 198 197 197 199 205 210 214 216 215 212 209 209 214 217 219 225 231 236 242 244 247 248 249 253 257 260 265 269 276 283 287
197 199 201 199 200 199 191 189 192 195 198 200 202 203 203 204 206 207 207 207 206 208 209 209 208 206 204 203 202 200 197 193 188 185 187 197 210 220 224 223 220 217 213 212 216 218 219 227 234 239 242 241 241 243 248 254 256 259 265 271 279 283 281
195 195 198 202 205 198 182 181 188 193 199 201 202 204 204 205 207 207 207 207 207 209 210 210 208 206 205 203 201 199 190 175 168 174 187 204 214 223 229 228 223 218 215 216 219 219 222 231 236 240 243 243 243 246 251 256 259 264 269 273 275 275 274
192 190 193 201 203 195 183 184 190 194 199 201 202 204 204 205 207 208 209 209 209 211 210 209 208 206 205 202 200 194 168 147 157 173 193 213 217 222 227 226 223 221 218 219 219 220 226 234 239 243 246 248 248 248 252 256 262 268 269 267 267 268 274
188 188 192 199 201 195 189 191 195 197 198 201 203 205 204 205 206 207 209 210 211 211 210 209 208 206 204 202 196 172 140 141 161 179 197 213 219 223 226 225 225 224 220 220 221 223 230 237 242 246 246 245 246 249 253 256 260 264 262 260 265 271 276
183 187 194 199 200 197 193 195 198 198 201 203 205 206 206 207 208 208 209 211 211 211 210 209 206 204 204 198 177 142 134 148 173 193 205 212 217 224 226 224 225 225 221 220 223 225 232 237 240 239 236 235 239 244 249 253 256 256 255 259 266 269 270
182 190 196 200 202 200 196 199 201 200 203 206 206 207 208 209 211 210 211 213 212 211 210 208 205 203 192 163 136 130 139 162 186 200 211 220 224 226 226 224 225 226 223 223 226 229 232 236 234 230 228 229 234 242 249 252 254 254 255 262 266 264 264
188 195 198 200 200 200 201 204 204 203 204 205 206 208 208 210 211 211 212 213 212 212 210 207 199 180 148 134 136 143 158 177 187 195 213 231 237 233 227 225 226 228 228 229 231 233 235 236 232 228 229 234 238 246 251 252 253 256 258 262 265 265 263
193 195 198 202 200 202 207 209 210 210 208 208 209 209 209 211 212 212 213 213 212 212 209 200 177 155 149 150 152 159 170 174 174 192 218 235 245 238 228 226 228 230 232 233 233 235 237 237 233 231 236 240 244 248 250 250 251 255 258 260 263 265 263
191 194 196 198 198 199 206 210 214 214 213 214 213 212 213 214 213 213 213 213 213 212 202 181 161 157 160 161 162 165 165 158 165 203 223 235 244 238 228 227 229 232 233 234 233 235 236 234 232 236 240 242 245 249 250 252 254 255 258 259 260 261 262
187 193 192 191 195 199 203 209 211 210 215 217 215 216 217 216 214 214 214 215 213 204 182 167 163 161 160 161 163 159 151 154 183 216 226 231 236 234 228 227 229 232 233 233 233 233 233 232 233 238 242 244 248 252 254 257 260 261 261 260 259 259 260
182 182 181 184 193 198 201 203 206 214 220 220 220 221 220 217 217 218 217 215 206 186 171 163 156 150 148 150 154 156 161 178 204 221 225 227 230 229 226 226 229 231 232 233 233 232 232 231 234 240 244 248 251 254 257 261 264 266 266 263 262 261 260
170 164 171 182 192 204 208 204 205 213 219 223 225 223 218 217 217 215 212 204 189 176 168 158 150 149 151 157 165 172 178 190 210 220 222 225 227 225 224 226 229 231 232 233 232 232 233 234 237 243 246 250 254 256 259 264 267 270 270 268 267 264 261
172 173 179 181 185 195 202 206 211 214 219 224 224 218 216 216 211 202 196 189 182 175 168 162 159 161 166 171 176 181 185 197 211 216 216 219 223 222 223 226 229 231 233 233 233 233 235 236 239 243 247 251 254 256 260 266 271 273 272 271 271 268 261
167 173 181 184 191 201 208 215 219 220 220 221 218 215 215 211 200 189 184 180 177 175 171 168 169 173 177 179 178 183 194 204 210 212 211 215 220 221 223 227 230 232 232 232 232 233 234 235 238 243 248 251 253 257 263 267 271 272 270 269 270 264 255
163 172 176 175 183 204 213 211 209 213 215 214 217 216 208 197 187 181 176 175 175 174 174 175 177 178 181 181 179 187 200 205 205 208 213 217 221 224 225 227 230 231 231 231 231 232 233 236 239 243 245 249 256 262 266 267 267 267 266 266 263 255 248
147 155 158 159 166 178 185 181 179 192 201 205 213 209 195 186 182 177 175 178 178 176 177 181 184 185 186 184 183 191 202 200 196 207 218 221 223 227 227 227 229 230 231 231 232 233 235 235 238 242 245 251 259 262 264 267 266 261 259 261 258 251 247
134 140 144 149 158 163 163 162 165 176 191 203 209 200 189 184 179 176 179 182 179 181 186 191 193 193 190 184 182 190 200 196 193 206 217 222 226 228 227 227 229 230 230 232 233 234 234 235 237 240 243 247 248 249 260 264 259 255 259 261 256 252 251
122 134 142 151 156 157 156 163 175 187 199 210 208 196 188 182 178 180 183 181 184 193 198 198 197 194 187 181 182 189 196 195 196 206 220 230 231 231 229 229 231 233 234 234 233 230 229 230 232 232 232 232 227 230 253 254 249 253 258 258 254 253 255
60 85 111 139 152 159 162 173 193 203 208 209 203 196 190 183 181 184 182 183 196 204 203 198 193 188 183 181 183 189 193 192 193 202 223 238 240 237 237 238 240 241 239 234 230 226 222 219 218 215 209 207 210 239 261 251 247 250 250 252 256 257 258
358 30 89 129 170 186 183 190 207 214 215 207 199 196 192 186 185 184 185 196 207 206 198 191 187 182 180 181 185 189 187 179 177 192 218 239 247 244 248 253 252 247 240 233 226 218 209 206 202 191 191 214 238 259 252 241 239 246 250 257 261 259 260
339 331 272 201 208 209 201 200 207 212 213 204 197 196 196 194 192 189 193 204 208 195 183 182 179 176 177 181 184 183 173 159 170 205 229 244 252 253 262 264 257 247 237 228 217 201 192 199 199 192 213 252 256 240 227 226 237 251 256 261 261 259 259
338 334 320 275 200 200 202 200 197 192 190 192 195 198 202 209 213 207 206 207 188 177 175 174 172 173 178 181 181 178 171 168 187 213 233 242 243 257 267 262 251 240 227 213 198 183 186 204 209 212 236 248 229 213 213 225 242 250 254 258 257 254 252
338 339 335 316 242 206 200 182 176 181 181 185 194 198 201 216 228 224 213 177 173 176 173 168 166 169 176 182 183 181 179 177 182 198 216 225 236 255 266 259 243 226 208 196 187 186 197 208 213 221 230 222 211 210 216 228 238 245 249 250 246 244 245
326 324 322 296 236 204 187 162 156 173 167 155 167 178 179 194 199 185 180 176 175 175 173 170 167 163 163 163 153 144 151 156 172 209 220 220 231 253 259 244 227 210 198 195 197 202 209 214 214 214 210 207 211 215 218 228 236 239 239 237 235 237 243
306 311 310 269 212 196 176 144 143 154 129 116 128 141 137 133 140 156 171 175 176 175 170 166 165 162 155 149 146 151 162 171 208 231 225 207 213 230 220 209 206 204 205 208 209 211 213 210 207 205 203 205 210 211 216 228 235 236 234 232 231 236 245
294 301 297 292 310 318 233 169 150 139 125 122 130 129 121 115 118 127 139 153 166 168 159 152 158 160 156 155 163 173 176 177 189 201 191 164 165 179 185 193 204 211 211 209 209 211 211 207 202 201 203 206 210 214 221 232 239 240 236 231 231 240 250
261 267 260 251 230 201 192 172 151 138 129 128 127 121 114 110 107 107 111 119 129 133 128 124 125 129 133 139 147 153 158 163 161 151 141 142 161 183 193 200 207 206 200 197 198 198 198 199 197 196 197 203 212 221 229 239 246 240 231 229 235 245 250
223 240 240 222 191 177 165 155 148 139 131 128 124 119 114 110 106 103 102 102 106 110 109 105 103 105 108 115 127 137 146 148 141 135 142 201 226 218 205 194 186 183 182 182 181 180 183 188 189 189 196 205 212 218 222 226 230 225 222 229 239 244 241
244 252 251 231 206 185 162 151 148 142 137 135 131 126 120 115 111 108 104 101 100 103 103 100 100 106 119 132 139 148 160 159 161 190 234 235 224 211 197 181 167 161 164 170 175 176 178 182 184 190 198 200 202 205 205 202 205 212 221 231 240 238 227